Temperature
4 3 3 4 4 5 4 4 4 4 4 3 3 3 3 3 2 2 2 2 3 4 5 5 5 5 6 6 6 6 6 6 6 6 6 6 6 6 6 6 6 6 6 6
3 3 4 4 4 4 4 4 3 3 4 3 2 2 2 2 2 2 2 2 2 3 4 4 4 5 5 5 5 5 5 5 5 5 5 6 6 5 5 5 5 6 5 6
3 3 4 4 3 4 3 3 3 3 3 3 2 2 2 2 2 2 2 2 2 2 3 3 4 4 4 4 5 5 5 5 5 5 5 5 5 4 4 5 5 5 5 5
2 2 3 3 3 3 3 3 3 3 2 1 2 2 2 1 1 1 1 1 1 1 2 2 3 3 4 4 4 4 4 4 4 4 4 4 4 4 4 4 4 4 4 4
1 2 2 2 3 2 2 2 2 2 1 1 1 1 1 0 1 1 0 0 1 1 2 2 3 3 3 3 4 4 4 4 4 4 4 4 4 4 4 4 4 4 4 4
1 1 1 1 2 2 1 1 1 0 0 1 1 1 1 -0 0 0 0 0 0 1 1 2 2 2 3 3 3 3 3 3 3 3 4 4 4 4 3 4 4 4 4 4
0 1 1 1 1 1 1 1 1 1 0 1 -0 0 0 -0 -1 -1 -1 -0 0 0 1 1 1 1 2 2 2 2 2 3 3 3 3 3 3 3 3 3 3 3 3 3
-1 -0 0 0 0 -0 -0 1 1 1 0 0 -1 -1 -0 -1 -1 -1 -1 -0 -0 -0 0 0 1 1 1 2 2 2 2 2 2 2 2 2 2 3 3 3 3 3 3 3
-1 -1 -0 -0 0 0 -0 -1 -0 -1 -2 -1 -1 -2 -2 -2 -2 -2 -2 -2 -2 -1 -1 -0 0 1 1 1 1 1 1 2 2 2 2 2 2 2 2 2 2 2 2 2
-2 -2 -1 -1 -0 -1 -1 -2 -2 -1 -0 -0 -1 -2 -1 -1 -2 -3 -3 -3 -2 -2 -1 -1 -1 -0 0 0 1 1 1 1 1 1 1 1 1 1 1 1 2 1 1 2
-2 -2 -2 -2 -2 -2 -2 -2 -3 -3 -2 -1 -1 -1 -2 -3 -3 -3 -3 -3 -2 -2 -2 -1 -1 -1 -1 -0 -0 -0 -0 0 0 0 0 0 0 0 0 1 1 1 1 1
-3 -3 -3 -3 -3 -2 -3 -3 -3 -2 -3 -3 -2 -1 -2 -4 -4 -3 -3 -3 -2 -2 -2 -2 -2 -2 -1 -1 -1 -1 -1 -0 -0 -0 -0 -0 -0 -0 -0 -0 -0 0 0 0
-3 -4 -3 -2 -3 -3 -4 -4 -4 -4 -4 -4 -3 -2 -3 -4 -4 -4 -4 -3 -3 -3 -3 -2 -2 -2 -2 -2 -2 -2 -1 -1 -1 -1 -1 -1 -1 -1 -1 -1 -1 -1 -1 -0
-2 -4 -3 -2 -3 -4 -4 -4 -5 -4 -4 -4 -4 -3 -3 -3 -4 -4 -4 -4 -4 -3 -3 -3 -3 -3 -3 -3 -2 -2 -2 -2 -2 -2 -2 -1 -1 -1 -1 -1 -1 -1 -1 -1
-4 -4 -5 -4 -4 -4 -4 -4 -5 -5 -5 -4 -4 -4 -3 -4 -5 -4 -4 -4 -4 -4 -4 -4 -3 -3 -3 -3 -3 -3 -3 -3 -3 -2 -2 -2 -2 -2 -2 -2 -2 -2 -2 -2
-5 -5 -5 -5 -4 -5 -4 -4 -5 -5 -5 -5 -5 -4 -5 -5 -5 -5 -5 -5 -5 -5 -5 -4 -4 -4 -4 -4 -4 -4 -3 -3 -3 -3 -3 -3 -3 -3 -3 -3 -3 -3 -3 -3
-6 -6 -6 -5 -6 -5 -5 -5 -5 -6 -6 -6 -5 -4 -5 -6 -6 -6 -5 -5 -6 -5 -5 -5 -5 -4 -4 -4 -4 -4 -4 -4 -4 -3 -3 -3 -3 -3 -3 -3 -3 -3 -3 -4
-6 -6 -6 -6 -6 -5 -4 -6 -6 -6 -6 -7 -6 -6 -6 -6 -6 -6 -5 -5 -5 -6 -5 -5 -5 -5 -4 -4 -4 -4 -4 -4 -4 -4 -4 -4 -4 -4 -4 -4 -4 -4 -4 -4
-7 -6 -6 -7 -7 -6 -5 -6 -7 -7 -7 -8 -8 -8 -7 -7 -7 -6 -6 -6 -6 -6 -6 -6 -5 -5 -5 -5 -5 -5 -5 -5 -5 -5 -5 -5 -5 -5 -5 -5 -5 -5 -5 -5
-8 -7 -7 -7 -6 -6 -5 -7 -8 -7 -6 -7 -8 -8 -8 -8 -7 -7 -6 -6 -6 -6 -6 -6 -6 -5 -5 -5 -5 -5 -5 -5 -5 -5 -5 -5 -5 -5 -5 -5 -5 -5 -6 -6
-8 -8 -8 -7 -7 -7 -8 -8 -8 -6 -6 -8 -8 -8 -8 -9 -8 -7 -7 -7 -7 -7 -7 -6 -6 -6 -6 -6 -6 -6 -5 -6 -6 -6 -6 -6 -6 -6 -6 -6 -6 -6 -6 -6
-8 -8 -8 -8 -8 -7 -9 -9 -8 -8 -8 -8 -8 -8 -8 -8 -8 -8 -8 -8 -8 -7 -7 -7 -7 -6 -6 -6 -6 -6 -6 -6 -6 -7 -7 -7 -7 -7 -7 -6 -6 -7 -7 -7
-10 -9 -9 -8 -7 -8 -9 -8 -8 -8 -8 -8 -8 -9 -9 -9 -9 -8 -8 -8 -8 -8 -8 -8 -7 -7 -7 -7 -7 -7 -7 -7 -7 -7 -7 -7 -7 -7 -7 -7 -7 -7 -8 -8
-11 -11 -11 -10 -10 -10 -9 -9 -8 -8 -9 -9 -9 -9 -9 -9 -9 -9 -9 -9 -9 -9 -8 -8 -8 -8 -8 -8 -8 -8 -8 -8 -8 -8 -8 -8 -8 -8 -8 -8 -8 -8 -8 -8
-11 -12 -11 -11 -11 -10 -9 -9 -9 -9 -9 -9 -9 -9 -9 -9 -9 -10 -10 -10 -9 -9 -9 -9 -9 -9 -9 -9 -9 -9 -9 -9 -9 -9 -9 -9 -9 -9 -9 -9 -9 -9 -8 -9
-12 -12 -11 -10 -10 -11 -10 -9 -9 -9 -9 -9 -9 -9 -10 -10 -10 -10 -10 -10 -10 -10 -10 -10 -9 -9 -9 -9 -9 -10 -10 -10 -10 -10 -10 -10 -10 -10 -10 -9 -9 -9 -9 -9
Wind_Speed
0 2 6 10 11 6 4 5 5 5 2 3 6 9 8 3 3 4 4 4 4 5 4 2 2 3 4 4 5 6 5 5 5 4 4 4 3 3 3 4 5 6 6 6
1 6 9 5 5 5 4 5 5 3 1 3 4 8 7 5 5 5 6 5 5 3 2 1 2 3 5 5 6 6 6 6 6 4 4 3 4 3 3 4 5 6 5 6
7 5 4 4 3 5 6 8 7 4 2 1 2 7 6 4 3 3 3 4 3 4 4 3 3 4 4 5 6 6 6 6 5 5 5 5 4 3 3 2 2 3 5 5
4 5 3 2 4 5 9 5 5 5 2 3 1 6 7 4 4 4 4 3 4 4 4 4 4 4 4 5 5 6 6 6 5 6 7 7 5 4 3 2 2 3 4 5
3 3 3 4 5 5 4 2 3 4 4 3 2 4 7 1 4 5 5 5 4 4 4 4 4 5 4 4 5 5 5 5 5 6 7 7 5 4 3 3 4 3 3 3
5 3 2 3 3 4 2 1 2 1 2 6 7 6 7 4 5 4 4 4 4 3 3 2 2 2 2 3 4 4 6 5 5 6 6 6 6 6 5 4 4 3 2 2
5 4 2 2 1 1 1 3 1 1 2 7 4 5 8 4 3 3 4 4 4 2 2 1 1 2 3 3 4 4 5 4 4 5 5 5 6 6 6 5 4 3 2 1
3 6 3 2 2 3 3 5 5 5 5 4 2 7 6 2 2 1 2 1 2 1 0 1 2 3 3 4 4 5 5 4 4 4 4 4 4 4 4 4 4 4 3 2
2 5 3 2 1 2 2 2 2 3 1 2 5 5 6 1 3 3 2 3 3 2 1 1 0 1 2 3 4 4 5 4 4 4 4 3 3 4 4 4 3 3 2 2
2 4 4 3 1 2 1 3 3 3 3 4 5 4 4 3 3 3 3 3 4 3 3 2 2 1 1 2 3 3 3 4 3 4 4 4 4 3 3 4 4 3 3 2
1 2 4 2 1 2 1 2 2 2 2 4 4 5 3 4 2 2 2 2 3 3 2 2 2 1 1 1 2 2 2 2 2 3 3 3 3 3 3 3 3 3 2 3
1 1 3 4 2 1 2 3 4 3 3 3 3 5 2 2 1 1 2 3 3 3 3 3 2 2 2 1 1 1 1 2 2 3 3 3 3 4 4 4 3 3 3 3
2 2 2 4 3 2 0 1 2 2 2 3 4 6 3 3 3 2 2 3 3 3 3 3 2 2 1 1 0 0 1 1 1 2 2 2 3 3 4 4 4 3 3 3
1 2 5 7 6 2 3 4 3 4 3 5 7 8 7 6 5 4 3 3 3 3 3 2 2 2 2 1 1 1 1 1 1 2 2 3 3 3 3 3 3 4 4 4
2 2 4 6 5 3 5 6 6 7 7 8 8 9 9 7 5 4 4 3 3 4 4 3 2 2 2 2 2 2 2 2 1 2 3 3 2 3 3 3 3 3 3 4
1 2 1 4 4 4 6 8 8 8 7 7 8 10 7 5 3 3 4 4 4 4 4 4 3 3 3 3 3 3 3 3 2 2 3 2 2 2 3 3 3 3 3 3
1 2 1 3 3 3 6 7 7 5 5 6 9 9 4 3 4 4 4 4 4 5 5 4 4 4 4 4 4 4 3 2 2 3 3 2 2 3 3 3 3 3 3 3
4 3 2 1 2 5 6 2 4 5 6 6 6 6 4 4 5 4 3 3 4 5 5 5 4 5 4 4 4 3 2 2 3 3 3 3 3 3 3 3 3 3 3 3
4 4 2 1 2 7 6 2 2 3 5 4 6 7 5 3 3 3 3 2 3 4 5 5 5 5 4 4 3 2 2 2 2 3 3 3 3 3 3 3 3 3 3 3
2 2 3 2 3 6 6 2 1 1 5 3 2 5 5 2 3 5 4 4 4 5 4 4 4 4 3 4 3 2 2 2 3 4 3 3 3 4 4 4 3 3 3 3
1 1 3 4 5 7 5 3 1 2 5 4 2 4 3 3 6 5 5 5 5 5 5 4 4 3 4 3 2 2 2 3 3 3 2 2 3 3 4 3 3 3 2 2
4 3 4 3 4 7 2 2 4 4 3 3 3 3 3 5 6 6 6 6 6 5 5 4 4 4 3 2 1 1 2 3 2 1 1 2 2 2 2 3 2 3 3 2
5 5 4 6 6 3 2 4 3 2 3 4 4 5 4 5 5 6 5 6 5 5 5 4 3 4 4 2 1 2 3 2 1 1 1 1 1 1 2 3 3 3 3 3
3 1 3 4 6 6 5 4 4 4 5 6 5 5 4 5 6 6 5 5 5 5 4 3 3 3 4 3 3 2 2 1 0 1 1 1 1 1 1 2 3 3 3 3
4 3 3 6 6 6 6 6 6 6 5 5 5 4 4 5 5 5 5 5 5 5 4 3 2 3 3 3 3 3 2 1 1 1 1 1 1 1 1 1 2 3 4 5
3 4 5 7 5 4 7 6 5 5 6 5 5 5 4 4 5 5 4 4 4 4 4 3 3 3 3 3 3 3 2 1 1 1 1 1 1 1 1 1 1 3 3 5
Wind_Direction
46 141 221 226 217 222 178 189 227 241 212 178 221 248 262 251 240 245 244 240 242 250 264 225 182 167 161 164 159 158 150 148 139 139 141 137 131 110 89 84 88 92 92 97
49 239 245 236 218 214 218 230 243 271 194 203 247 264 264 238 231 232 235 239 245 261 278 235 190 171 174 176 171 164 161 156 154 152 147 133 127 115 98 85 80 85 92 98
216 251 257 220 216 214 231 225 229 237 330 358 314 290 261 255 238 251 238 239 247 236 237 229 207 194 181 181 180 173 171 161 154 134 117 108 96 89 95 93 87 79 95 100
250 276 287 236 238 218 242 240 223 217 222 260 196 272 269 255 267 258 253 255 255 255 239 221 208 199 195 194 180 169 163 160 157 142 143 141 142 142 157 149 132 97 95 102
274 288 276 254 247 215 239 252 209 208 201 251 232 233 276 283 265 270 261 256 257 250 232 219 209 202 193 181 170 163 153 159 157 152 156 152 144 139 129 124 121 114 91 96
267 294 278 254 263 218 195 86 72 89 149 246 227 209 270 235 242 269 273 267 269 260 241 231 210 167 159 152 152 154 154 159 160 157 156 155 151 141 134 135 139 144 125 95
301 286 317 337 341 339 112 115 63 293 233 243 204 209 252 253 248 240 264 272 276 264 224 198 173 165 164 154 154 156 155 161 162 161 163 165 161 156 159 161 163 157 151 149
301 287 296 326 224 216 219 176 178 207 226 264 219 226 252 260 292 284 271 286 335 340 307 203 196 183 173 165 161 159 162 163 161 164 170 168 164 165 168 167 161 168 177 173
241 274 307 315 320 160 166 204 190 147 149 247 253 278 301 333 357 1 357 11 352 343 351 332 258 161 168 164 165 167 167 166 167 170 165 160 167 173 171 164 155 165 160 155
204 270 293 315 22 43 122 146 104 159 197 244 270 263 260 291 300 333 349 342 335 354 5 1 5 68 151 163 157 147 163 172 166 166 170 172 172 172 164 156 164 168 166 155
194 219 301 352 209 217 91 113 120 153 186 196 254 267 246 230 233 255 290 322 339 344 342 344 355 19 65 87 133 149 156 147 152 165 167 165 172 166 160 164 175 175 166 160
175 151 269 267 262 187 154 174 152 179 247 215 227 268 317 234 276 235 289 325 343 355 359 358 1 24 47 70 105 151 161 166 175 172 164 166 168 170 173 177 184 173 177 176
148 118 352 336 341 12 4 205 176 159 168 202 222 264 333 347 352 345 320 321 334 351 2 5 15 24 14 351 229 201 205 201 177 160 163 170 173 179 189 189 186 181 183 185
127 165 198 228 249 242 265 255 205 172 208 235 237 262 293 305 310 317 314 316 328 337 342 350 355 351 342 335 312 284 277 255 190 171 178 191 197 195 194 189 184 184 183 188
97 220 240 258 267 249 251 253 226 214 218 227 249 250 264 273 276 287 297 313 329 330 333 330 324 320 320 320 315 298 284 267 218 186 194 210 209 194 182 178 182 183 185 195
86 203 278 287 272 267 269 259 240 234 233 242 262 268 269 278 290 286 285 292 302 306 311 312 308 304 297 294 291 282 268 259 227 207 214 212 199 193 191 185 180 180 186 191
182 161 177 277 308 334 275 241 221 220 217 206 238 255 280 289 278 271 273 282 289 296 300 298 296 289 284 280 274 270 258 247 220 218 224 215 203 202 199 189 182 189 193 191
178 173 190 278 20 253 251 230 214 228 243 227 246 271 278 272 289 283 271 279 296 301 300 299 298 295 289 284 288 281 264 229 219 222 225 221 213 212 199 188 194 197 198 198
191 175 171 169 244 276 290 274 189 219 272 249 249 271 283 297 323 300 304 288 278 285 288 288 287 289 291 290 287 278 267 238 224 229 228 220 210 206 196 199 204 202 201 213
80 146 162 171 218 250 260 266 238 152 281 289 256 265 278 312 293 278 313 317 305 301 301 302 303 303 296 292 280 248 246 236 238 239 234 221 210 205 204 204 206 208 211 220
95 116 188 210 235 262 270 280 130 181 267 313 284 267 264 242 245 276 312 317 316 313 313 314 309 299 290 289 268 250 247 248 256 254 240 224 215 212 208 203 207 194 204 207
194 190 204 186 218 256 282 131 178 233 286 303 296 285 271 266 282 295 303 311 320 323 323 322 316 311 318 320 287 272 272 279 286 260 235 230 223 220 207 185 197 195 187 200
207 204 206 203 221 247 187 205 239 258 274 284 291 297 292 288 289 298 304 310 313 313 315 321 317 319 332 338 313 275 296 313 309 279 242 239 234 225 210 194 196 200 194 202
258 225 210 248 264 266 265 266 282 283 276 284 286 285 283 279 288 296 301 307 311 312 313 319 325 325 324 327 321 297 298 305 278 255 267 252 231 237 223 215 206 205 209 213
241 191 231 258 276 297 276 267 279 286 284 285 288 277 271 272 284 287 294 301 306 313 316 318 310 305 309 319 322 322 318 298 258 256 260 256 247 225 228 240 226 227 231 227
216 202 216 248 252 246 275 289 291 287 288 283 284 293 292 272 274 284 289 296 302 308 313 317 314 310 312 317 317 321 321 290 230 264 267 256 253 242 228 241 308 307 274 271
Height
1473 1478 1478 1476 1476 1476 1479 1481 1483 1482 1481 1484 1484 1482 1480 1479 1479 1479 1478 1478 1478 1478 1480 1481 1482 1484 1486 1488 1490 1493 1495 1497 1500 1503 1505 1508 1511 1514 1517 1519 1521 1523 1525 1527
1477 1477 1474 1475 1476 1477 1478 1481 1482 1482 1481 1483 1484 1481 1478 1477 1476 1476 1476 1476 1476 1476 1477 1478 1479 1481 1483 1484 1487 1489 1491 1494 1497 1500 1503 1505 1508 1511 1515 1517 1519 1521 1524 1525
1476 1475 1474 1474 1475 1476 1477 1479 1480 1482 1483 1483 1484 1479 1475 1473 1473 1473 1473 1473 1473 1473 1474 1475 1476 1477 1479 1481 1483 1485 1489 1491 1494 1497 1500 1503 1506 1509 1512 1514 1517 1519 1521 1523
1477 1475 1474 1474 1474 1475 1475 1476 1478 1480 1485 1488 1486 1485 1474 1472 1472 1470 1470 1470 1470 1470 1471 1472 1473 1474 1476 1479 1482 1484 1486 1489 1493 1495 1498 1500 1502 1505 1508 1512 1515 1517 1519 1521
1477 1475 1475 1474 1474 1475 1476 1476 1478 1480 1485 1489 1489 1489 1475 1473 1471 1469 1468 1467 1467 1468 1468 1469 1470 1472 1474 1477 1479 1481 1484 1487 1490 1493 1495 1498 1501 1504 1507 1510 1512 1515 1517 1519
1478 1476 1476 1475 1474 1475 1476 1478 1480 1483 1486 1488 1485 1488 1475 1474 1469 1466 1465 1465 1465 1465 1465 1466 1468 1470 1472 1474 1476 1479 1482 1484 1487 1490 1493 1495 1498 1501 1504 1506 1509 1512 1514 1516
1479 1477 1477 1476 1475 1475 1476 1480 1484 1485 1489 1484 1483 1483 1474 1468 1466 1465 1464 1463 1463 1463 1464 1464 1465 1467 1469 1471 1473 1476 1479 1481 1484 1487 1490 1493 1496 1499 1501 1503 1506 1509 1511 1512
1484 1482 1478 1477 1477 1478 1478 1478 1482 1485 1486 1484 1485 1481 1470 1466 1464 1463 1463 1462 1462 1462 1462 1463 1464 1465 1466 1469 1471 1473 1476 1479 1482 1484 1487 1490 1493 1495 1498 1500 1503 1505 1507 1509
1487 1483 1479 1477 1476 1477 1479 1481 1481 1486 1491 1491 1484 1480 1470 1465 1464 1463 1463 1462 1461 1461 1461 1462 1462 1463 1465 1467 1469 1471 1474 1476 1479 1481 1484 1486 1489 1492 1494 1497 1500 1502 1504 1506
1485 1487 1481 1479 1477 1478 1480 1482 1486 1485 1484 1482 1480 1480 1472 1466 1465 1464 1463 1462 1462 1461 1461 1461 1462 1462 1463 1465 1467 1470 1472 1474 1476 1479 1481 1483 1486 1488 1490 1493 1496 1498 1501 1503
1485 1488 1485 1482 1483 1482 1483 1486 1486 1489 1487 1484 1483 1475 1467 1466 1464 1464 1463 1463 1462 1462 1461 1461 1461 1462 1463 1464 1466 1468 1470 1471 1473 1476 1478 1480 1482 1484 1487 1489 1492 1494 1496 1498
1485 1488 1489 1485 1482 1481 1483 1485 1487 1488 1489 1491 1485 1477 1466 1465 1464 1464 1464 1463 1463 1463 1462 1462 1462 1462 1462 1463 1464 1466 1467 1469 1471 1473 1475 1477 1479 1481 1483 1485 1487 1490 1492 1494
1485 1488 1490 1485 1486 1485 1485 1485 1487 1488 1490 1492 1486 1476 1466 1465 1464 1464 1464 1464 1463 1463 1462 1462 1461 1461 1461 1462 1463 1464 1465 1466 1468 1469 1471 1473 1475 1477 1479 1481 1483 1485 1487 1489
1482 1487 1488 1486 1481 1483 1485 1484 1485 1486 1487 1487 1483 1474 1468 1466 1465 1464 1463 1463 1462 1462 1461 1461 1460 1460 1460 1461 1461 1462 1463 1464 1465 1466 1467 1469 1471 1473 1474 1476 1478 1480 1482 1484
1482 1486 1487 1484 1481 1482 1482 1481 1482 1483 1481 1480 1474 1472 1467 1465 1465 1464 1463 1462 1461 1461 1460 1460 1459 1459 1459 1459 1459 1459 1460 1460 1462 1463 1464 1465 1467 1469 1471 1472 1474 1476 1478 1479
1483 1486 1486 1484 1480 1481 1479 1476 1477 1477 1477 1477 1473 1469 1464 1464 1464 1463 1461 1460 1460 1459 1459 1458 1458 1457 1457 1456 1456 1456 1456 1457 1458 1459 1460 1462 1463 1465 1466 1468 1470 1471 1473 1474
1485 1487 1487 1485 1484 1480 1478 1474 1473 1474 1473 1473 1470 1465 1463 1463 1462 1461 1460 1459 1458 1458 1457 1456 1456 1455 1454 1453 1453 1453 1453 1454 1454 1455 1456 1457 1459 1460 1462 1464 1465 1467 1468 1469
1484 1485 1486 1487 1487 1485 1472 1470 1469 1469 1468 1468 1466 1462 1462 1461 1460 1459 1459 1458 1457 1456 1455 1454 1453 1452 1451 1451 1451 1450 1450 1450 1451 1452 1453 1454 1455 1456 1458 1459 1461 1462 1464 1465
1479 1482 1486 1488 1489 1481 1471 1469 1470 1470 1467 1465 1464 1461 1460 1460 1458 1457 1457 1457 1456 1455 1454 1452 1451 1449 1448 1448 1447 1447 1447 1447 1447 1448 1449 1450 1451 1452 1454 1455 1457 1458 1459 1460
1480 1481 1485 1488 1485 1481 1469 1468 1467 1469 1467 1462 1461 1460 1460 1459 1460 1457 1455 1454 1453 1452 1451 1449 1448 1446 1445 1445 1444 1444 1443 1444 1444 1445 1445 1446 1448 1449 1450 1451 1453 1454 1455 1456
1483 1485 1486 1485 1484 1476 1470 1467 1467 1470 1465 1462 1460 1459 1458 1458 1457 1455 1453 1452 1451 1449 1448 1446 1445 1443 1442 1442 1441 1440 1440 1440 1441 1442 1442 1443 1444 1446 1447 1448 1449 1450 1451 1452
1481 1483 1484 1484 1483 1475 1467 1467 1468 1466 1462 1461 1459 1458 1457 1455 1453 1452 1451 1449 1448 1446 1444 1443 1442 1440 1440 1439 1438 1437 1437 1438 1438 1439 1439 1440 1441 1442 1443 1444 1445 1446 1447 1448
1480 1478 1476 1476 1472 1466 1464 1464 1463 1462 1461 1459 1458 1456 1455 1453 1451 1449 1448 1446 1444 1443 1441 1440 1439 1438 1437 1436 1436 1435 1435 1435 1435 1436 1436 1437 1438 1439 1440 1440 1441 1442 1443 1444
1475 1474 1474 1472 1466 1463 1462 1461 1460 1460 1458 1457 1456 1454 1453 1451 1449 1447 1445 1443 1441 1440 1439 1438 1437 1436 1435 1434 1434 1433 1433 1433 1433 1433 1433 1434 1434 1435 1436 1437 1438 1438 1439 1440
1471 1472 1471 1468 1464 1461 1458 1458 1457 1456 1455 1453 1452 1451 1450 1448 1446 1444 1442 1441 1439 1438 1437 1436 1435 1433 1432 1432 1431 1431 1431 1431 1430 1430 1431 1431 1431 1432 1432 1433 1434 1435 1436 1436
1467 1468 1468 1462 1459 1460 1456 1455 1454 1453 1451 1450 1449 1447 1446 1445 1443 1441 1440 1438 1437 1436 1435 1434 1433 1431 1431 1430 1429 1429 1428 1428 1428 1428 1428 1428 1428 1429 1429 1430 1431 1432 1433 1433